When you browse on this site, cookies collect data to enhance your experience and personalize the content and advertising you see.
Visit our Privacy Policy to learn more. By continuing to use the site, you agree to this use of cookies and data.
  • Em Portugal
  • Lista de países
  • Para 7 dias
  • Temperatura da água
  • Mapa do tempo
  • Widgets de tempo
  • user-avatar
    Iniciar Sessão

    Previsão horária em Idjevan

    Hoje, 24 Outubro, Quinta-feira

    Tempo Temperatura Precipitação Vento Pressão Humidade
    00:00 +11°C° 0 mm 1 m/s 696 mmHg 80%
    01:00 +11°C° 0 mm 1 m/s 695 mmHg 81%
    02:00 +10°C° 0 mm 1 m/s 695 mmHg 81%
    03:00 +10°C° 0 mm 1 m/s 695 mmHg 83%
    04:00 +10°C° 0 mm 1 m/s 696 mmHg 83%
    05:00 +10°C° 0 mm 1 m/s 696 mmHg 83%
    06:00 +9°C° 0 mm 1 m/s 696 mmHg 82%
    07:00 +11°C° 0 mm 1 m/s 696 mmHg 75%
    08:00 +13°C° 0 mm 1 m/s 696 mmHg 68%
    09:00 +15°C° 0 mm 1 m/s 696 mmHg 61%
    10:00 +16°C° 0 mm 1 m/s 696 mmHg 58%
    11:00 +17°C° 0 mm 2 m/s 696 mmHg 54%
    12:00 +18°C° 0 mm 2 m/s 696 mmHg 51%
    13:00 +18°C° 0 mm 2 m/s 696 mmHg 52%
    14:00 +18°C° 0 mm 2 m/s 695 mmHg 52%
    15:00 +18°C° 0 mm 2 m/s 695 mmHg 53%
    16:00 +16°C° 0 mm 2 m/s 695 mmHg 62%
    17:00 +15°C° 0 mm 1 m/s 695 mmHg 72%
    18:00 +12°C° 0 mm 0 m/s 695 mmHg 81%
    19:00 +12°C° 0 mm 1 m/s 695 mmHg 82%
    20:00 +12°C° 0 mm 1 m/s 695 mmHg 82%
    21:00 +12°C° 0 mm 1 m/s 695 mmHg 83%
    22:00 +12°C° 0 mm 1 m/s 695 mmHg 84%
    23:00 +11°C° 0 mm 1 m/s 695 mmHg 84%

    Amanhã, 25 Outubro, Sexta-feira

    Tempo Temperatura Precipitação Vento Pressão Humidade
    00:00 +11°C° 0 mm 1 m/s 695 mmHg 85%
    01:00 +11°C° 0 mm 1 m/s 695 mmHg 85%
    02:00 +11°C° 0 mm 1 m/s 695 mmHg 85%
    03:00 +10°C° 0 mm 1 m/s 695 mmHg 85%
    04:00 +10°C° 0 mm 1 m/s 694 mmHg 85%
    05:00 +10°C° 0 mm 1 m/s 694 mmHg 85%
    06:00 +10°C° 0 mm 1 m/s 694 mmHg 85%
    07:00 +12°C° 0 mm 1 m/s 695 mmHg 77%
    08:00 +14°C° 0 mm 1 m/s 695 mmHg 70%
    09:00 +16°C° 0 mm 1 m/s 695 mmHg 63%
    10:00 +18°C° 0 mm 1 m/s 695 mmHg 60%
    11:00 +18°C° 0 mm 2 m/s 695 mmHg 57%
    12:00 +19°C° 0 mm 2 m/s 694 mmHg 54%
    13:00 +19°C° 0 mm 2 m/s 694 mmHg 55%
    14:00 +19°C° 0 mm 2 m/s 694 mmHg 57%
    15:00 +19°C° 0 mm 2 m/s 694 mmHg 58%
    16:00 +17°C° 0 mm 2 m/s 693 mmHg 67%
    17:00 +15°C° 0 mm 1 m/s 693 mmHg 76%
    18:00 +12°C° 0 mm 0 m/s 693 mmHg 85%
    19:00 +12°C° 0 mm 0 m/s 693 mmHg 86%
    20:00 +12°C° 0 mm 0 m/s 693 mmHg 86%
    21:00 +11°C° 0 mm 0 m/s 694 mmHg 87%
    22:00 +11°C° 0 mm 0 m/s 694 mmHg 87%
    23:00 +11°C° 0 mm 0 m/s 694 mmHg 88%

    Depois de amanhã, 26 Outubro, Sábado

    Tempo Temperatura Precipitação Vento Pressão Humidade
    00:00 +10°C° 0 mm 0 m/s 694 mmHg 89%
    01:00 +10°C° 0 mm 0 m/s 694 mmHg 90%
    02:00 +10°C° 0 mm 0 m/s 694 mmHg 90%
    03:00 +10°C° 0 mm 0 m/s 693 mmHg 91%
    04:00 +10°C° 0 mm 0 m/s 694 mmHg 90%
    05:00 +10°C° 0 mm 0 m/s 694 mmHg 89%
    06:00 +10°C° 0 mm 0 m/s 694 mmHg 88%
    07:00 +11°C° 0 mm 0 m/s 694 mmHg 82%
    08:00 +13°C° 0 mm 1 m/s 694 mmHg 77%
    09:00 +15°C° 0 mm 1 m/s 695 mmHg 71%
    10:00 +16°C° 0 mm 1 m/s 695 mmHg 67%
    11:00 +17°C° 0 mm 2 m/s 695 mmHg 62%
    12:00 +18°C° 0 mm 2 m/s 695 mmHg 58%
    13:00 +18°C° 0 mm 2 m/s 694 mmHg 58%
    14:00 +18°C° 0 mm 2 m/s 694 mmHg 59%
    15:00 +18°C° 0 mm 2 m/s 694 mmHg 60%
    16:00 +16°C° 0 mm 2 m/s 694 mmHg 68%
    17:00 +14°C° 0 mm 1 m/s 694 mmHg 77%
    18:00 +12°C° 0 mm 0 m/s 694 mmHg 86%
    19:00 +11°C° 0 mm 0 m/s 694 mmHg 86%
    20:00 +11°C° 0 mm 0 m/s 694 mmHg 87%
    21:00 +12°C° 0 mm 1 m/s 695 mmHg 88%
    22:00 +11°C° 0 mm 1 m/s 695 mmHg 88%
    23:00 +11°C° 0 mm 1 m/s 695 mmHg 89%

    , 27 Outubro, Domingo

    Tempo Temperatura Precipitação Vento Pressão Humidade
    00:00 +11°C° 0 mm 1 m/s 695 mmHg 89%
    01:00 +11°C° 0 mm 1 m/s 695 mmHg 89%
    02:00 +11°C° 0 mm 1 m/s 695 mmHg 88%
    03:00 +11°C° 0 mm 1 m/s 695 mmHg 88%
    04:00 +10°C° 0 mm 1 m/s 695 mmHg 87%
    05:00 +9°C° 0 mm 2 m/s 695 mmHg 86%
    06:00 +9°C° 0 mm 2 m/s 695 mmHg 85%
    07:00 +12°C° 0 mm 1 m/s 695 mmHg 76%
    08:00 +14°C° 0 mm 1 m/s 696 mmHg 67%
    09:00 +15°C° 0 mm 0 m/s 696 mmHg 58%
    10:00 +18°C° 0 mm 1 m/s 696 mmHg 53%
    11:00 +19°C° 0 mm 1 m/s 696 mmHg 48%
    12:00 +20°C° 0 mm 2 m/s 696 mmHg 44%
    13:00 +19°C° 0 mm 2 m/s 696 mmHg 46%
    14:00 +19°C° 0 mm 2 m/s 695 mmHg 48%
    15:00 +19°C° 0 mm 2 m/s 695 mmHg 50%
    16:00 +18°C° 0 mm 1 m/s 695 mmHg 59%
    17:00 +15°C° 0 mm 1 m/s 695 mmHg 68%
    18:00 +13°C° 0 mm 0 m/s 695 mmHg 77%
    19:00 +13°C° 0 mm 1 m/s 695 mmHg 77%
    20:00 +13°C° 0 mm 1 m/s 695 mmHg 78%
    21:00 +13°C° 0 mm 1 m/s 696 mmHg 78%
    22:00 +13°C° 0 mm 1 m/s 696 mmHg 79%
    23:00 +13°C° 0 mm 1 m/s 695 mmHg 79%

    27 Outubro, Domingo

    Tempo Temperatura Precipitação Vento Pressão Humidade
    00:00 +11°C° 0 mm 1 m/s 695 mmHg 89%
    01:00 +11°C° 0 mm 1 m/s 695 mmHg 89%
    02:00 +11°C° 0 mm 1 m/s 695 mmHg 88%
    03:00 +11°C° 0 mm 1 m/s 695 mmHg 88%
    04:00 +10°C° 0 mm 1 m/s 695 mmHg 87%
    05:00 +9°C° 0 mm 2 m/s 695 mmHg 86%
    06:00 +9°C° 0 mm 2 m/s 695 mmHg 85%
    07:00 +12°C° 0 mm 1 m/s 695 mmHg 76%
    08:00 +14°C° 0 mm 1 m/s 696 mmHg 67%
    09:00 +15°C° 0 mm 0 m/s 696 mmHg 58%
    10:00 +18°C° 0 mm 1 m/s 696 mmHg 53%
    11:00 +19°C° 0 mm 1 m/s 696 mmHg 48%
    12:00 +20°C° 0 mm 2 m/s 696 mmHg 44%
    13:00 +19°C° 0 mm 2 m/s 696 mmHg 46%
    14:00 +19°C° 0 mm 2 m/s 695 mmHg 48%
    15:00 +19°C° 0 mm 2 m/s 695 mmHg 50%
    16:00 +18°C° 0 mm 1 m/s 695 mmHg 59%
    17:00 +15°C° 0 mm 1 m/s 695 mmHg 68%
    18:00 +13°C° 0 mm 0 m/s 695 mmHg 77%
    19:00 +13°C° 0 mm 1 m/s 695 mmHg 77%
    20:00 +13°C° 0 mm 1 m/s 695 mmHg 78%
    21:00 +13°C° 0 mm 1 m/s 696 mmHg 78%
    22:00 +13°C° 0 mm 1 m/s 696 mmHg 79%
    23:00 +13°C° 0 mm 1 m/s 695 mmHg 79%

    28 Outubro, Segunda-feira

    Tempo Temperatura Precipitação Vento Pressão Humidade
    00:00 +13°C° 0 mm 1 m/s 695 mmHg 79%
    01:00 +12°C° 0 mm 1 m/s 695 mmHg 80%
    02:00 +12°C° 0 mm 1 m/s 695 mmHg 81%
    03:00 +12°C° 0 mm 1 m/s 695 mmHg 81%
    04:00 +11°C° 0 mm 1 m/s 695 mmHg 81%
    05:00 +11°C° 0 mm 1 m/s 695 mmHg 80%
    06:00 +11°C° 0 mm 1 m/s 695 mmHg 80%
    07:00 +13°C° 0 mm 1 m/s 695 mmHg 72%
    08:00 +14°C° 0 mm 1 m/s 695 mmHg 63%
    09:00 +15°C° 0 mm 0 m/s 696 mmHg 55%
    10:00 +18°C° 0 mm 1 m/s 695 mmHg 52%
    11:00 +18°C° 0 mm 2 m/s 695 mmHg 49%
    12:00 +19°C° 0 mm 2 m/s 695 mmHg 46%
    13:00 +19°C° 0 mm 2 m/s 694 mmHg 49%
    14:00 +19°C° 0 mm 2 m/s 694 mmHg 51%
    15:00 +19°C° 0 mm 2 m/s 693 mmHg 54%
    16:00 +18°C° 0 mm 1 m/s 693 mmHg 62%
    17:00 +15°C° 0 mm 1 m/s 693 mmHg 70%
    18:00 +13°C° 0 mm 0 m/s 692 mmHg 77%
    19:00 +12°C° 0 mm 0 m/s 693 mmHg 78%
    20:00 +12°C° 0 mm 0 m/s 693 mmHg 79%
    21:00 +12°C° 0 mm 0 m/s 693 mmHg 79%
    22:00 +11°C° 0 mm 0 m/s 692 mmHg 80%
    23:00 +11°C° 0 mm 0 m/s 692 mmHg 81%

    29 Outubro, Terça-feira

    Tempo Temperatura Precipitação Vento Pressão Humidade
    00:00 +11°C° 0 mm 0 m/s 692 mmHg 82%
    01:00 +10°C° 0 mm 0 m/s 692 mmHg 82%
    02:00 +11°C° 0 mm 1 m/s 691 mmHg 82%
    03:00 +11°C° 0 mm 1 m/s 691 mmHg 82%
    04:00 +11°C° 0 mm 1 m/s 691 mmHg 80%
    05:00 +11°C° 0 mm 1 m/s 691 mmHg 78%
    06:00 +11°C° 0 mm 1 m/s 691 mmHg 76%
    07:00 +13°C° 0 mm 1 m/s 691 mmHg 67%
    08:00 +15°C° 0 mm 1 m/s 691 mmHg 57%
    09:00 +18°C° 0 mm 1 m/s 692 mmHg 48%
    10:00 +19°C° 0 mm 1 m/s 692 mmHg 45%
    11:00 +19°C° 0 mm 2 m/s 691 mmHg 41%
    12:00 +21°C° 0 mm 2 m/s 691 mmHg 38%
    13:00 +21°C° 0 mm 2 m/s 691 mmHg 39%
    14:00 +20°C° 0 mm 2 m/s 691 mmHg 40%
    15:00 +20°C° 0 mm 2 m/s 690 mmHg 41%
    16:00 +18°C° 0 mm 2 m/s 690 mmHg 48%
    17:00 +18°C° 0 mm 1 m/s 690 mmHg 54%
    18:00 +15°C° 0 mm 1 m/s 690 mmHg 61%
    19:00 +14°C° 0 mm 1 m/s 690 mmHg 59%
    20:00 +14°C° 0 mm 1 m/s 691 mmHg 58%
    21:00 +14°C° 0 mm 1 m/s 691 mmHg 56%
    22:00 +14°C° 0 mm 1 m/s 691 mmHg 55%
    23:00 +14°C° 0 mm 1 m/s 691 mmHg 55%
    Mostrar mais